"Pseudo-MPEC" for DT20M09

Created 2020 Jul 2 22:07:04 UT using Find_Orb

Click here for an explanation of pseudo-MPECs

 
 Astrometry: 
     DT20M09  C2020 06 27[=kk^a.lRmAstrometryi4QXR(@v3kl/#A_XU5mr'^redacted;WT14
     DT20M09  C2020 06 27Bm#O:l=E$oMxF;C8JCrclick'sfP(!C!here\\2YOibC5%i9tp7tT14
     DT20M09  C2020 06 2715gfor52_Q2\[;^%pta\SjKo3:tVSI'DexplanationC83dNFJDwT14

Station data:
(T14) Mauna Kea-UH/Tholen NEO Follow-Up (CFHT)  (N19.825252 W155.468876)
   US/Hawaii. 3.6-m Canada-France-Hawaii Telescope.

Orbital elements:  DT20M09
   Perihelion 2020 Sep 17.780660 +/- 64.4 TT = 18:44:09 (JD 2459110.280660)
Epoch 2020 Jun 27.0 TT = JDT 2459027.5   Earth MOID: 0.0062   AutoNEOCP
M 282.41126696 +/- 80               (J2000 ecliptic)
n   0.93728091 +/- 0.533            Peri.   84.11342 +/- 100
a   1.03408490 +/- 0.392            Node   275.12330 +/- 17
e   0.0555532 +/- 0.277             Incl.    3.46351 +/- 23
P   1.05/384.08d           H 31.0   G  0.15   U 12.3  SR
q 0.97663814 +/- 0.312    Q 1.09153166 +/- 19.2
From 3 observations 2020 June 27 (2.8 min); mean residual 0".07
Residuals in arcseconds: 
200627 T14  .04+  .06-    200627 T14  .07-  .11+    200627 T14  .04+  .06-    

Ephemerides (geocentric):
Date (UTC) HH   RA              Dec         delta   r     elong  mag " sig PA
---- -- -- --  -------------   -----------  ------ ------ -----  --- ---- ---
2020 07 02 22  16 19 30.397   +38 23 39.93  .00726 1.0191 109.4 22.8  36d  21
2020 07 02 23  16 19 13.585   +38 49 21.74  .00728 1.0191 109.0 22.8  36d  21
2020 07 03 00  16 18 56.658   +39 14 55.86  .00730 1.0190 108.6 22.8  36d  22
2020 07 03 01  16 18 39.613   +39 40 22.19  .00732 1.0190 108.2 22.8  36d  22
2020 07 03 02  16 18 22.449   +40 05 40.63  .00733 1.0190 107.8 22.9  36d  22
2020 07 03 03  16 18 05.165   +40 30 51.08  .00735 1.0189 107.4 22.9  35d  22
2020 07 03 04  16 17 47.759   +40 55 53.45  .00737 1.0189 107.0 22.9  35d  23
2020 07 03 05  16 17 30.229   +41 20 47.67  .00739 1.0188 106.7 22.9  35d  23
2020 07 03 06  16 17 12.574   +41 45 33.64  .00741 1.0188 106.3 22.9  35d  23
2020 07 03 07  16 16 54.793   +42 10 11.28  .00743 1.0188 105.9 23.0  35d  23
2020 07 03 08  16 16 36.882   +42 34 40.54  .00746 1.0187 105.5 23.0  35d  24
2020 07 03 09  16 16 18.842   +42 59 01.33  .00748 1.0187 105.1 23.0  35d  24
2020 07 03 10  16 16 00.670   +43 23 13.59  .00750 1.0186 104.8 23.0  35d  24
2020 07 03 11  16 15 42.364   +43 47 17.25  .00752 1.0186 104.4 23.0  34d  24
2020 07 03 12  16 15 23.923   +44 11 12.27  .00754 1.0185 104.0 23.0  34d  25
2020 07 03 13  16 15 05.345   +44 34 58.58  .00757 1.0185 103.7 23.1  34d  25
2020 07 03 14  16 14 46.628   +44 58 36.13  .00759 1.0185 103.3 23.1  34d  25
2020 07 03 15  16 14 27.770   +45 22 04.89  .00761 1.0184 102.9 23.1  34d  25
2020 07 03 16  16 14 08.769   +45 45 24.79  .00763 1.0184 102.6 23.1  34d  26
2020 07 03 17  16 13 49.624   +46 08 35.81  .00766 1.0183 102.2 23.1  34d  26
2020 07 03 18  16 13 30.333   +46 31 37.91  .00768 1.0183 101.9 23.2  33d  26
2020 07 03 19  16 13 10.893   +46 54 31.05  .00771 1.0183 101.5 23.2  33d  27
2020 07 03 20  16 12 51.303   +47 17 15.21  .00773 1.0182 101.2 23.2  33d  27
2020 07 03 21  16 12 31.560   +47 39 50.35  .00776 1.0182 100.8 23.2  33d  27
2020 07 03 22  16 12 11.664   +48 02 16.46  .00778 1.0181 100.5 23.2  33d  27
2020 07 03 23  16 11 51.610   +48 24 33.52  .00781 1.0181 100.1 23.3  33d  28
2020 07 04 00  16 11 31.398   +48 46 41.50  .00784 1.0181  99.8 23.3  33d  28
2020 07 04 01  16 11 11.026   +49 08 40.40  .00786 1.0180  99.5 23.3  32d  28
2020 07 04 02  16 10 50.490   +49 30 30.19  .00789 1.0180  99.1 23.3  32d  29
2020 07 04 03  16 10 29.790   +49 52 10.89  .00792 1.0179  98.8 23.3  32d  29
2020 07 04 04  16 10 08.922   +50 13 42.47  .00794 1.0179  98.4 23.4  32d  30
2020 07 04 05  16 09 47.884   +50 35 04.94  .00797 1.0179  98.1 23.4  32d  30
2020 07 04 06  16 09 26.675   +50 56 18.29  .00800 1.0178  97.8 23.4  32d  30
2020 07 04 07  16 09 05.292   +51 17 22.53  .00803 1.0178  97.5 23.4  32d  31
2020 07 04 08  16 08 43.732   +51 38 17.66  .00806 1.0177  97.1 23.4  31d  31
2020 07 04 09  16 08 21.993   +51 59 03.69  .00808 1.0177  96.8 23.4  31d  31
2020 07 04 10  16 08 00.073   +52 19 40.63  .00811 1.0176  96.5 23.5  31d  32
2020 07 04 11  16 07 37.968   +52 40 08.49  .00814 1.0176  96.2 23.5  31d  32
2020 07 04 12  16 07 15.677   +53 00 27.28  .00817 1.0176  95.9 23.5  31d  33
2020 07 04 13  16 06 53.198   +53 20 37.02  .00820 1.0175  95.6 23.5  31d  33
2020 07 04 14  16 06 30.526   +53 40 37.73  .00823 1.0175  95.3 23.5  31d  34
2020 07 04 15  16 06 07.661   +54 00 29.42  .00826 1.0174  95.0 23.6  31d  34
2020 07 04 16  16 05 44.598   +54 20 12.12  .00829 1.0174  94.6 23.6  30d  34
2020 07 04 17  16 05 21.336   +54 39 45.86  .00832 1.0174  94.3 23.6  30d  35
2020 07 04 18  16 04 57.871   +54 59 10.65  .00836 1.0173  94.0 23.6  30d  35
2020 07 04 19  16 04 34.201   +55 18 26.53  .00839 1.0173  93.7 23.6  30d  36
2020 07 04 20  16 04 10.323   +55 37 33.51  .00842 1.0172  93.5 23.7  30d  36
2020 07 04 21  16 03 46.234   +55 56 31.64  .00845 1.0172  93.2 23.7  30d  37